CW7520 Weather Reports


Display with metric or nautical units.
time (UTC)temp
F
wind
direction
speed
MPH
gust
MPH
rain 1hr
in
rain 24hr
in
rain mn
in
humidity
%
barometer
mb
20260903234714 55 0 0.0 0.0 0.00 0.09 0.00 67 1019.8
20260903233813 54 0 0.0 0.0 0.00 0.09 0.00 68 1019.6
20260903232708 54 0 0.0 0.0 0.00 0.09 0.00 70 1020.3
20260903231803 53 0 0.0 0.0 0.00 0.09 0.00 72 1020.2
20260903230908 52 0 0.0 0.0 0.00 0.09 0.00 73 1020.0
20260903230011 52 0 0.0 0.0 0.00 0.09 0.00 75 1020.1
20260903225405 51 0 0.0 0.0 0.00 0.09 0.00 76 1020.1
20260903224509 50 0 0.0 0.0 0.00 0.09 0.00 80 1020.2
20260903223813 49 0 0.0 0.0 0.00 0.09 0.00 83 1020.2
20260903222713 48 0 0.0 0.0 0.00 0.09 0.00 87 1019.9
20260903221803 47 0 0.0 0.0 0.00 0.09 0.00 89 1019.8
20260903220903 46 0 0.0 0.0 0.00 0.09 0.00 89 1019.8
20260903220004 46 0 0.0 0.0 0.00 0.09 0.00 88 1019.7
20260903215403 45 0 0.0 0.0 0.00 0.09 0.00 88 1019.7
20260903214503 45 0 0.0 0.0 0.00 0.09 0.00 88 1019.5
20260903213603 44 0 0.0 0.0 0.00 0.09 0.00 88 1019.4
20260903212704 44 0 0.0 0.0 0.00 0.09 0.00 88 1019.3
20260903211803 44 0 0.0 0.0 0.00 0.09 0.00 88 1019.2
20260903211115 43 0 0.0 0.0 0.00 0.09 0.00 88 1019.1
20260903210008 43 0 0.0 0.0 0.00 0.09 0.00 88 1019.0
20260903205405 43 0 0.0 0.0 0.00 0.09 0.00 87 1018.9
20260903204508 43 0 0.0 0.0 0.00 0.09 0.00 87 1018.9
20260903203603 43 0 0.0 0.0 0.00 0.09 0.00 87 1018.9
20260903202705 43 0 0.0 0.0 0.00 0.09 0.00 88 1018.8
20260903201804 43 0 0.0 0.0 0.00 0.09 0.00 87 1018.8
20260903200905 43 0 0.0 0.0 0.00 0.09 0.00 87 1018.8
20260903200008 43 0 0.0 0.0 0.00 0.09 0.00 87 1018.7
20260903195403 43 0 0.0 0.0 0.00 0.09 0.00 87 1018.7
20260903194505 43 0 0.0 0.0 0.00 0.09 0.00 87 1018.8
20260903193814 43 0 0.0 0.0 0.00 0.09 0.00 87 1018.7
20260903192703 43 0 0.0 0.0 0.00 0.09 0.00 87 1018.7
20260903191806 43 0 0.0 0.0 0.00 0.09 0.00 87 1018.7
20260903190903 43 0 0.0 0.0 0.00 0.09 0.00 86 1018.6
20260903190213 43 0 0.0 0.0 0.00 0.09 0.00 86 1018.6
20260903185404 43 0 0.0 0.0 0.00 0.09 0.00 86 1018.7
20260903184503 43 0 0.0 0.0 0.00 0.09 0.00 86 1018.7
20260903183604 43 0 0.0 0.0 0.00 0.09 0.00 86 1018.6
20260903182704 44 0 0.0 0.0 0.00 0.09 0.00 86 1018.7
20260903182014 44 0 0.0 0.0 0.00 0.09 0.00 86 1018.8
20260903180903 44 0 0.0 0.0 0.00 0.09 0.00 85 1018.6
20260903180215 44 0 0.0 0.0 0.00 0.09 0.00 85 1018.6
20260903175403 44 0 0.0 0.0 0.00 0.09 0.00 85 1018.6
20260903174504 45 0 0.0 0.0 0.00 0.09 0.00 85 1018.6
20260903173605 45 0 0.0 0.0 0.00 0.09 0.00 85 1018.5
20260903172705 45 0 0.0 0.0 0.00 0.09 0.00 84 1018.6
20260903171805 45 0 0.0 0.0 0.00 0.09 0.00 85 1018.8
20260903170905 46 0 0.0 0.0 0.00 0.09 0.00 85 1018.8
20260903170004 46 0 0.0 0.0 0.00 0.09 0.00 85 1018.9
20260903165405 46 0 0.0 0.0 0.00 0.09 0.00 85 1019.1
20260903164714 46 0 0.0 0.0 0.00 0.09 0.00 85 1019.0
20260903163813 46 0 0.0 0.0 0.00 0.09 0.00 84 1019.0
20260903162705 46 0 0.0 0.0 0.00 0.09 0.00 84 1019.1
20260903161803 46 0 0.0 0.0 0.00 0.09 0.00 84 1019.2
20260903160903 47 0 0.0 0.0 0.00 0.09 0.00 83 1019.4
20260903160004 47 0 0.0 0.0 0.00 0.09 0.00 83 1019.4
20260903155405 47 0 0.0 0.0 0.00 0.09 0.00 83 1019.5
20260903154505 47 0 0.0 0.0 0.00 0.09 0.00 83 1019.5
20260903153603 48 0 0.0 0.0 0.00 0.09 0.00 82 1019.5
20260903152703 48 0 0.0 0.0 0.00 0.09 0.00 82 1019.6
20260903151803 48 0 0.0 0.0 0.00 0.09 0.00 82 1019.6
20260903151114 48 0 0.0 0.0 0.00 0.09 0.00 82 1019.7
20260903150005 49 0 0.0 0.0 0.00 0.09 0.00 81 1019.6
20260903145613 49 0 0.0 0.0 0.00 0.09 0.00 81 1019.7
20260903144505 49 0 0.0 0.0 0.00 0.09 0.00 81 1019.7
20260903143605 50 0 0.0 0.0 0.00 0.09 0.00 81 1019.7
20260903142705 50 0 0.0 0.0 0.00 0.09 0.00 80 1019.6
20260903141803 50 0 0.0 0.0 0.00 0.09 0.00 79 1019.6
20260903140905 50 0 0.0 0.0 0.00 0.09 0.00 79 1019.7
20260903140009 51 0 0.0 0.0 0.00 0.09 0.00 78 1019.8
20260903135405 51 0 0.0 0.0 0.00 0.09 0.09 77 1019.9
20260903134505 51 0 0.0 0.0 0.00 0.09 0.09 77 1019.7
20260903133604 51 0 0.0 0.0 0.00 0.09 0.09 77 1019.8
20260903132913 52 0 0.0 0.0 0.00 0.09 0.09 77 1019.8
20260903131803 52 0 0.0 0.0 0.00 0.09 0.09 76 1019.8
20260903130904 52 0 0.0 0.0 0.00 0.09 0.09 76 1019.8
20260903130003 52 0 0.0 0.0 0.00 0.09 0.09 77 1019.8
20260903125613 52 0 0.0 0.0 0.00 0.09 0.09 77 1019.9
20260903124503 52 0 0.0 0.0 0.00 0.09 0.09 76 1019.8
20260903123603 52 0 0.0 0.0 0.00 0.09 0.09 76 1019.7
20260903122919 52 0 0.0 0.0 0.00 0.09 0.09 76 1019.8
20260903121803 52 0 0.0 0.0 0.00 0.09 0.09 75 1019.7
20260903121113 52 0 0.0 0.0 0.00 0.09 0.09 75 1019.7
20260903120004 52 0 0.0 0.0 0.00 0.09 0.09 74 1019.6
20260903115614 52 0 0.0 0.0 0.00 0.09 0.09 74 1019.6
20260903114508 52 0 0.0 0.0 0.00 0.09 0.09 73 1019.6
20260903113603 53 0 0.0 0.0 0.00 0.09 0.09 73 1019.5
20260903112713 53 0 0.0 0.0 0.00 0.09 0.09 72 1019.3
20260903111803 53 0 0.0 0.0 0.00 0.09 0.09 72 1019.2
20260903110904 53 0 0.0 0.0 0.00 0.09 0.09 72 1019.2
20260903110003 54 0 0.0 0.0 0.00 0.09 0.09 72 1019.0
20260903105404 54 0 0.0 0.0 0.00 0.09 0.09 72 1019.0
20260903104509 54 0 0.0 0.0 0.00 0.09 0.09 72 1018.8
20260903103603 54 0 0.0 0.0 0.00 0.09 0.09 71 1018.6
20260903102703 54 0 0.0 0.0 0.00 0.09 0.09 70 1018.4
20260903101803 55 0 0.0 0.0 0.00 0.09 0.09 70 1018.2
20260903100903 55 0 0.0 0.0 0.00 0.09 0.09 69 1018.2
20260903100008 55 0 0.0 0.0 0.00 0.09 0.09 69 1017.9
20260903095408 55 0 0.0 0.0 0.00 0.09 0.09 69 1017.9
20260903094713 55 0 0.0 0.0 0.00 0.09 0.09 69 1017.8
20260903093608 56 0 0.0 0.0 0.00 0.09 0.09 69 1017.7
20260903092708 56 0 0.0 0.0 0.00 0.09 0.09 68 1017.6
20260903091813 56 0 0.0 0.0 0.00 0.09 0.09 68 1017.5
20260903091119 57 0 0.0 0.0 0.00 0.09 0.09 68 1017.4
20260903090008 57 0 0.0 0.0 0.00 0.09 0.09 67 1017.1
20260903085613 57 0 0.0 0.0 0.00 0.09 0.09 67 1017.1
20260903084508 58 0 0.0 0.0 0.00 0.09 0.09 66 1016.8
20260903083608 58 0 0.0 0.0 0.00 0.09 0.09 65 1016.7
20260903082708 59 0 0.0 0.0 0.00 0.09 0.09 64 1016.6
20260903081809 59 0 0.0 0.0 0.00 0.09 0.09 64 1016.4
20260903080908 60 0 0.0 0.0 0.00 0.09 0.09 63 1016.2
20260903080008 60 0 0.0 0.0 0.00 0.09 0.09 62 1016.1
20260903075403 61 0 0.0 0.0 0.00 0.09 0.09 61 1016.0
20260903074503 61 0 0.0 0.0 0.00 0.09 0.09 60 1015.7
20260903073608 62 0 0.0 0.0 0.00 0.09 0.09 59 1015.6
20260903072708 63 0 0.0 0.0 0.00 0.09 0.09 58 1015.4
20260903072014 63 0 0.0 0.0 0.00 0.09 0.09 57 1015.4
20260903070905 64 0 0.0 0.0 0.00 0.09 0.09 54 1015.1
20260903070004 65 0 0.0 0.0 0.00 0.09 0.09 49 1014.9
20260903065403 66 0 0.0 0.0 0.00 0.09 0.09 45 1014.7
20260903064718 66 0 0.0 0.0 0.00 0.09 0.09 45 1014.6
20260903063603 66 0 0.0 0.0 0.00 0.09 0.09 49 1014.5
20260903062703 66 0 0.0 0.0 0.00 0.09 0.09 50 1014.3
20260903061808 67 0 0.0 0.0 0.00 0.09 0.09 50 1014.2
20260903060908 67 0 0.0 0.0 0.00 0.09 0.09 49 1014.1
20260903060219 67 0 0.0 0.0 0.00 0.09 0.09 47 1014.0
20260903055404 66 0 0.0 0.0 0.00 0.09 0.09 51 1014.0
20260903054503 66 0 0.0 0.0 0.00 0.09 0.09 52 1013.9
20260903053608 66 0 0.0 0.0 0.00 0.09 0.09 53 1013.9
20260903052924 66 0 0.0 0.0 0.00 0.09 0.09 54 1013.9
20260903051804 66 0 0.0 0.0 0.00 0.09 0.09 53 1013.8
20260903050908 66 0 0.0 0.0 0.00 0.09 0.09 55 1013.7
20260903050013 66 0 0.0 0.0 0.00 0.09 0.09 55 1013.8
20260903045403 65 0 0.0 0.0 0.00 0.09 0.09 56 1013.8
20260903044508 64 0 0.0 0.0 0.00 0.09 0.09 57 1013.6
20260903043819 64 0 0.0 0.0 0.00 0.09 0.09 57 1013.6
20260903042703 64 0 0.0 0.0 0.00 0.09 0.09 60 1013.6
20260903041803 64 0 0.0 0.0 0.00 0.09 0.09 62 1013.6
20260903041125 64 0 0.0 0.0 0.00 0.09 0.09 64 1013.5
20260903040009 64 0 0.0 0.0 0.00 0.09 0.09 63 1013.3
20260903035403 63 0 0.0 0.0 0.00 0.09 0.09 69 1013.3
20260903034504 62 0 0.0 0.0 0.00 0.09 0.09 78 1013.2
20260903033605 60 0 0.0 0.0 0.00 0.09 0.09 82 1013.2
20260903032708 59 0 0.0 0.0 0.04 0.09 0.09 83 1013.4
20260903031803 59 0 0.0 0.0 0.09 0.09 0.09 84 1013.4
20260903031114 59 0 0.0 0.0 0.09 0.09 0.09 85 1013.3
20260903030008 59 0 0.0 0.0 0.09 0.09 0.09 85 1013.5
20260903025408 58 0 0.0 0.0 0.09 0.09 0.09 84 1013.4
20260903024503 58 0 0.0 0.0 0.09 0.09 0.09 82 1013.4
20260903023605 59 0 0.0 0.0 0.09 0.09 0.09 80 1013.4
20260903022708 60 0 0.0 0.0 0.06 0.06 0.06 78 1013.4
20260903021805 61 0 0.0 0.0 0.00 0.00 0.00 76 1013.1
20260903020903 61 0 0.0 0.0 0.00 0.00 0.00 73 1012.8
20260903020004 61 0 0.0 0.0 0.00 0.00 0.00 71 1012.5
20260903015408 62 0 0.0 0.0 0.00 0.00 0.00 72 1012.6
20260903014508 62 0 0.0 0.0 0.00 0.00 0.00 73 1012.6
20260903013605 61 0 0.0 0.0 0.00 0.00 0.00 75 1012.9
20260903012708 60 0 0.0 0.0 0.00 0.00 0.00 77 1013.0
20260903011808 59 0 0.0 0.0 0.00 0.00 0.00 78 1013.0
20260903010908 59 0 0.0 0.0 0.00 0.00 0.00 77 1012.9
20260903010213 59 0 0.0 0.0 0.00 0.00 0.00 78 1012.7
20260903005403 58 0 0.0 0.0 0.00 0.00 0.00 80 1012.7
20260903004504 58 0 0.0 0.0 0.00 0.00 0.00 82 1012.7
20260903003608 58 0 0.0 0.0 0.00 0.00 0.00 81 1012.7
20260903002914 58 0 0.0 0.0 0.00 0.00 0.00 81 1012.7
20260903001803 57 0 0.0 0.0 0.00 0.00 0.00 76 1012.6
20260903000903 57 0 0.0 0.0 0.00 0.00 0.00 72 1012.3
20260903000003 57 0 0.0 0.0 0.00 0.00 0.00 71 1012.2
20260902235408 57 0 0.0 0.0 0.00 0.00 0.00 71 1011.9